Powrót do katalogu

SL-16 DEB

AktywnyLEO
NORAD 22395·DEBRIS·🇷🇺 Russia

Wystrzelony Dec 25, 1992 z Baikonur Cosmodrome

Loading…

Następne Przeloty (najbliższe 24 godziny)

TLE

ŚwieżeSource: Space-Track

Epoka: Sep 13, 2026, 12:13 UTC

1 22395U 92093CL  26256.50944412  .00005420  00000-0  11062-2 0  9997
2 22395  71.1342 282.7960 0049906 253.1609 225.2583 14.60567275734193

Śledź SL-16 DEB w czasie rzeczywistym z AllMySat

Download on the App Store